User: anonymous   Login
Location: Cussy
(47.0410°N, 4.6412°E)
Time: 16:16:13
(UTC+00:00)
Language:

H-2A R/B - Orbit

View from above orbital plane
View from above orbital plane
View from above satellite
View from above satellite

Ground track
Ground track

The orbit data is extracted from the following two-line orbital elements,

1 27601U 02056E   21062.85005432 -.00000060  00000-0 -67627-5 0  9998
2 27601  98.2011  90.8919 0071372 224.0539 309.4425 14.31990929951818
Epoch (UTC): 03 March 2021 20:24:04
Eccentricity: 0.0071372
inclination: 98.2011°
perigee height: 734 km
apogee height: 836 km
right ascension of ascending node: 90.8919°
argument of perigee: 224.0539°
revolutions per day: 14.31990929
mean anomaly at epoch: 309.4425°
orbit number at epoch: 95181

The dashed part of the orbit path shows where the satellite is in the earth's shadow,  

DLR